Year,Month,Day,Hour,Minute,Value (Times are PST for temperature in C)
2019,05,07,00,00,13.90
2019,05,07,00,01,13.90
2019,05,07,00,02,13.90
2019,05,07,00,03,13.90
2019,05,07,00,04,13.80
2019,05,07,00,05,13.80
2019,05,07,00,06,13.80
2019,05,07,00,07,13.80
2019,05,07,00,08,13.80
2019,05,07,00,09,13.80
2019,05,07,00,10,13.70
2019,05,07,00,11,13.70
2019,05,07,00,12,13.70
2019,05,07,00,13,13.70
2019,05,07,00,14,13.60
2019,05,07,00,15,13.60
2019,05,07,00,16,13.50
2019,05,07,00,17,13.50
2019,05,07,00,18,13.40
2019,05,07,00,19,13.40
2019,05,07,00,20,13.30
2019,05,07,00,21,13.20
2019,05,07,00,22,13.20
2019,05,07,00,23,13.10
2019,05,07,00,24,13.10
2019,05,07,00,25,13.00
2019,05,07,00,26,13.00
2019,05,07,00,27,12.90
2019,05,07,00,28,12.90
2019,05,07,00,29,12.80
2019,05,07,00,30,12.80
2019,05,07,00,31,12.80
2019,05,07,00,32,12.80
2019,05,07,00,33,12.70
2019,05,07,00,34,12.70
2019,05,07,00,35,12.70
2019,05,07,00,36,12.80
2019,05,07,00,37,12.80
2019,05,07,00,38,12.80
2019,05,07,00,39,12.80
2019,05,07,00,40,12.80
2019,05,07,00,41,12.70
2019,05,07,00,42,12.70
2019,05,07,00,43,12.70
2019,05,07,00,44,12.70
2019,05,07,00,45,12.70
2019,05,07,00,46,12.70
2019,05,07,00,47,12.70
2019,05,07,00,48,12.70
2019,05,07,00,49,12.70
2019,05,07,00,50,12.70
2019,05,07,00,51,12.70
2019,05,07,00,52,12.70
2019,05,07,00,53,12.70
2019,05,07,00,54,12.70
2019,05,07,00,55,12.70
2019,05,07,00,56,12.70
2019,05,07,00,57,12.70
2019,05,07,00,58,12.70
2019,05,07,00,59,12.70
2019,05,07,01,00,12.70
2019,05,07,01,01,12.70
2019,05,07,01,02,12.70
2019,05,07,01,03,12.70
2019,05,07,01,04,12.60
2019,05,07,01,05,12.60
2019,05,07,01,06,12.50
2019,05,07,01,07,12.50
2019,05,07,01,08,12.40
2019,05,07,01,09,12.40
2019,05,07,01,10,12.30
2019,05,07,01,11,12.30
2019,05,07,01,12,12.20
2019,05,07,01,13,12.10
2019,05,07,01,14,11.90
2019,05,07,01,15,11.80
2019,05,07,01,16,11.70
2019,05,07,01,17,11.60
2019,05,07,01,18,11.60
2019,05,07,01,19,11.50
2019,05,07,01,20,11.40
2019,05,07,01,21,11.40
2019,05,07,01,22,11.30
2019,05,07,01,23,11.30
2019,05,07,01,24,11.30
2019,05,07,01,25,11.20
2019,05,07,01,26,11.20
2019,05,07,01,27,11.10
2019,05,07,01,28,11.10
2019,05,07,01,29,11.10
2019,05,07,01,30,11.00
2019,05,07,01,31,11.00
2019,05,07,01,32,11.00
2019,05,07,01,33,10.90
2019,05,07,01,34,10.90
2019,05,07,01,35,10.90
2019,05,07,01,36,10.80
2019,05,07,01,37,10.80
2019,05,07,01,38,10.80
2019,05,07,01,39,10.70
2019,05,07,01,40,10.70
2019,05,07,01,41,10.70
2019,05,07,01,42,10.70
2019,05,07,01,43,10.70
2019,05,07,01,44,10.70
2019,05,07,01,45,10.70
2019,05,07,01,46,10.70
2019,05,07,01,47,10.70
2019,05,07,01,48,10.70
2019,05,07,01,49,10.70
2019,05,07,01,50,10.60
2019,05,07,01,51,10.60
2019,05,07,01,52,10.60
2019,05,07,01,53,10.60
2019,05,07,01,54,10.50
2019,05,07,01,55,10.50
2019,05,07,01,56,10.40
2019,05,07,01,57,10.40
2019,05,07,01,58,10.30
2019,05,07,01,59,10.30
2019,05,07,02,00,10.30
2019,05,07,02,01,10.30
2019,05,07,02,02,10.20
2019,05,07,02,03,10.20
2019,05,07,02,04,10.20
2019,05,07,02,05,10.10
2019,05,07,02,06,10.10
2019,05,07,02,07,10.00
2019,05,07,02,08,10.00
2019,05,07,02,09,9.90
2019,05,07,02,10,9.90
2019,05,07,02,11,9.80
2019,05,07,02,12,9.80
2019,05,07,02,13,9.80
2019,05,07,02,14,9.70
2019,05,07,02,15,9.70
2019,05,07,02,16,9.70
2019,05,07,02,17,9.70
2019,05,07,02,18,9.60
2019,05,07,02,19,9.60
2019,05,07,02,20,9.60
2019,05,07,02,21,9.60
2019,05,07,02,22,9.50
2019,05,07,02,23,9.50
2019,05,07,02,24,9.50
2019,05,07,02,25,9.50
2019,05,07,02,26,9.50
2019,05,07,02,27,9.40
2019,05,07,02,28,9.40
2019,05,07,02,29,9.40
2019,05,07,02,30,9.40
2019,05,07,02,31,9.30
2019,05,07,02,32,9.30
2019,05,07,02,33,9.30
2019,05,07,02,34,9.20
2019,05,07,02,35,9.20
2019,05,07,02,36,9.20
2019,05,07,02,37,9.10
2019,05,07,02,38,9.10
2019,05,07,02,39,9.10
2019,05,07,02,40,9.10
2019,05,07,02,41,9.00
2019,05,07,02,42,9.00
2019,05,07,02,43,8.90
2019,05,07,02,44,8.90
2019,05,07,02,45,8.90
2019,05,07,02,46,8.80
2019,05,07,02,47,8.80
2019,05,07,02,48,8.80
2019,05,07,02,49,8.80
2019,05,07,02,50,8.80
2019,05,07,02,51,8.80
2019,05,07,02,52,8.70
2019,05,07,02,53,8.80
2019,05,07,02,54,8.80
2019,05,07,02,55,8.70
2019,05,07,02,56,8.70
2019,05,07,02,57,8.70
2019,05,07,02,58,8.70
2019,05,07,02,59,8.70
2019,05,07,03,00,8.70
2019,05,07,03,01,8.70
2019,05,07,03,02,8.70
2019,05,07,03,03,8.60
2019,05,07,03,04,8.60
2019,05,07,03,05,8.60
2019,05,07,03,06,8.60
2019,05,07,03,07,8.50
2019,05,07,03,08,8.50
2019,05,07,03,09,8.50
2019,05,07,03,10,8.50
2019,05,07,03,11,8.40
2019,05,07,03,12,8.40
2019,05,07,03,13,8.40
2019,05,07,03,14,8.40
2019,05,07,03,15,8.30
2019,05,07,03,16,8.30
2019,05,07,03,17,8.30
2019,05,07,03,18,8.30
2019,05,07,03,19,8.30
2019,05,07,03,20,8.20
2019,05,07,03,21,8.20
2019,05,07,03,22,8.20
2019,05,07,03,23,8.20
2019,05,07,03,24,8.20
2019,05,07,03,25,8.20
2019,05,07,03,26,8.10
2019,05,07,03,27,8.10
2019,05,07,03,28,8.10
2019,05,07,03,29,8.10
2019,05,07,03,30,8.10
2019,05,07,03,31,8.00
2019,05,07,03,32,8.00
2019,05,07,03,33,8.00
2019,05,07,03,34,8.00
2019,05,07,03,35,7.90
2019,05,07,03,36,7.90
2019,05,07,03,37,7.90
2019,05,07,03,38,7.90
2019,05,07,03,39,7.90
2019,05,07,03,40,7.80
2019,05,07,03,41,7.80
2019,05,07,03,42,7.80
2019,05,07,03,43,7.80
2019,05,07,03,44,7.70
2019,05,07,03,45,7.70
2019,05,07,03,46,7.70
2019,05,07,03,47,7.70
2019,05,07,03,48,7.70
2019,05,07,03,49,7.60
2019,05,07,03,50,7.60
2019,05,07,03,51,7.60
2019,05,07,03,52,7.60
2019,05,07,03,53,7.50
2019,05,07,03,54,7.50
2019,05,07,03,55,7.50
2019,05,07,03,56,7.50
2019,05,07,03,57,7.40
2019,05,07,03,58,7.40
2019,05,07,03,59,7.40
2019,05,07,04,00,7.40
2019,05,07,04,01,7.40
2019,05,07,04,02,7.30
2019,05,07,04,03,7.30
2019,05,07,04,04,7.30
2019,05,07,04,05,7.30
2019,05,07,04,06,7.30
2019,05,07,04,07,7.30
2019,05,07,04,08,7.30
2019,05,07,04,09,7.30
2019,05,07,04,10,7.20
2019,05,07,04,11,7.20
2019,05,07,04,12,7.20
2019,05,07,04,13,7.20
2019,05,07,04,14,7.20
2019,05,07,04,15,7.20
2019,05,07,04,16,7.20
2019,05,07,04,17,7.20
2019,05,07,04,18,7.10
2019,05,07,04,19,7.10
2019,05,07,04,20,7.10
2019,05,07,04,21,7.10
2019,05,07,04,22,7.10
2019,05,07,04,23,7.10
2019,05,07,04,24,7.00
2019,05,07,04,25,7.00
2019,05,07,04,26,7.00
2019,05,07,04,27,7.00
2019,05,07,04,28,6.90
2019,05,07,04,29,6.90
2019,05,07,04,30,6.90
2019,05,07,04,31,6.90
2019,05,07,04,32,6.90
2019,05,07,04,33,6.90
2019,05,07,04,34,6.90
2019,05,07,04,35,6.80
2019,05,07,04,36,6.80
2019,05,07,04,37,6.80
2019,05,07,04,38,6.80
2019,05,07,04,39,6.80
2019,05,07,04,40,6.80
2019,05,07,04,41,6.80
2019,05,07,04,42,6.70
2019,05,07,04,43,6.70
2019,05,07,04,44,6.70
2019,05,07,04,45,6.70
2019,05,07,04,46,6.70
2019,05,07,04,47,6.70
2019,05,07,04,48,6.70
2019,05,07,04,49,6.60
2019,05,07,04,50,6.60
2019,05,07,04,51,6.60
2019,05,07,04,52,6.60
2019,05,07,04,53,6.60
2019,05,07,04,54,6.60
2019,05,07,04,55,6.60
2019,05,07,04,56,6.50
2019,05,07,04,57,6.50
2019,05,07,04,58,6.50
2019,05,07,04,59,6.50
2019,05,07,05,00,6.50
2019,05,07,05,01,6.50
2019,05,07,05,02,6.50
2019,05,07,05,03,6.50
2019,05,07,05,04,6.50
2019,05,07,05,05,6.50
2019,05,07,05,06,6.50
2019,05,07,05,07,6.40
2019,05,07,05,08,6.40
2019,05,07,05,09,6.40
2019,05,07,05,10,6.40
2019,05,07,05,11,6.40
2019,05,07,05,12,6.40
2019,05,07,05,13,6.40
2019,05,07,05,14,6.30
2019,05,07,05,15,6.30
2019,05,07,05,16,6.30
2019,05,07,05,17,6.30
2019,05,07,05,18,6.30
2019,05,07,05,19,6.30
2019,05,07,05,20,6.20
2019,05,07,05,21,6.20
2019,05,07,05,22,6.20
2019,05,07,05,23,6.20
2019,05,07,05,24,6.20
2019,05,07,05,25,6.20
2019,05,07,05,26,6.20
2019,05,07,05,27,6.20
2019,05,07,05,28,6.10
2019,05,07,05,29,6.10
2019,05,07,05,30,6.10
2019,05,07,05,31,6.10
2019,05,07,05,32,6.10
2019,05,07,05,33,6.10
2019,05,07,05,34,6.00
2019,05,07,05,35,6.00
2019,05,07,05,36,6.00
2019,05,07,05,37,6.00
2019,05,07,05,38,6.00
2019,05,07,05,39,6.00
2019,05,07,05,40,6.00
2019,05,07,05,41,5.90
2019,05,07,05,42,5.90
2019,05,07,05,43,5.90
2019,05,07,05,44,5.90
2019,05,07,05,45,5.90
2019,05,07,05,46,5.90
2019,05,07,05,47,5.90
2019,05,07,05,48,5.90
2019,05,07,05,49,5.90
2019,05,07,05,50,5.90
2019,05,07,05,51,5.80
2019,05,07,05,52,5.80
2019,05,07,05,53,5.80
2019,05,07,05,54,5.80
2019,05,07,05,55,5.80
2019,05,07,05,56,5.80
2019,05,07,05,57,5.80
2019,05,07,05,58,5.80
2019,05,07,05,59,5.80
2019,05,07,06,00,5.80
2019,05,07,06,01,5.80
2019,05,07,06,02,5.80
2019,05,07,06,03,5.70
2019,05,07,06,04,5.70
2019,05,07,06,05,5.70
2019,05,07,06,06,5.70
2019,05,07,06,07,5.70
2019,05,07,06,08,5.70
2019,05,07,06,09,5.70
2019,05,07,06,10,5.70
2019,05,07,06,11,5.70
2019,05,07,06,12,5.70
2019,05,07,06,13,5.70
2019,05,07,06,14,5.70
2019,05,07,06,15,5.70
2019,05,07,06,16,5.70
2019,05,07,06,17,5.70
2019,05,07,06,18,5.70
2019,05,07,06,19,5.70
2019,05,07,06,20,5.70
2019,05,07,06,21,5.70
2019,05,07,06,22,5.70
2019,05,07,06,23,5.60
2019,05,07,06,24,5.60
2019,05,07,06,25,5.60
2019,05,07,06,26,5.60
2019,05,07,06,27,5.60
2019,05,07,06,28,5.60
2019,05,07,06,29,5.60
2019,05,07,06,30,5.60
2019,05,07,06,31,5.60
2019,05,07,06,32,5.60
2019,05,07,06,33,5.60
2019,05,07,06,34,5.60
2019,05,07,06,35,5.60
2019,05,07,06,36,5.60
2019,05,07,06,37,5.60
2019,05,07,06,38,5.60
2019,05,07,06,39,5.60
2019,05,07,06,40,5.60
2019,05,07,06,41,5.60
2019,05,07,06,42,5.60
2019,05,07,06,43,5.60
2019,05,07,06,44,5.60
2019,05,07,06,45,5.60
2019,05,07,06,46,5.60
2019,05,07,06,47,5.60
2019,05,07,06,48,5.60
2019,05,07,06,49,5.60
2019,05,07,06,50,5.60
2019,05,07,06,51,5.60
2019,05,07,06,52,5.60
2019,05,07,06,53,5.60
2019,05,07,06,54,5.60
2019,05,07,06,55,5.60
2019,05,07,06,56,5.60
2019,05,07,06,57,5.60
2019,05,07,06,58,5.60
2019,05,07,06,59,5.60
2019,05,07,07,00,5.60
2019,05,07,07,01,5.70
2019,05,07,07,02,5.70
2019,05,07,07,03,5.70
2019,05,07,07,04,5.70
2019,05,07,07,05,5.70
2019,05,07,07,06,5.70
2019,05,07,07,07,5.70
2019,05,07,07,08,5.70
2019,05,07,07,09,5.70
2019,05,07,07,10,5.70
2019,05,07,07,11,5.70
2019,05,07,07,12,5.70
2019,05,07,07,13,5.70
2019,05,07,07,14,5.70
2019,05,07,07,15,5.70
2019,05,07,07,16,5.70
2019,05,07,07,17,5.80
2019,05,07,07,18,5.80
2019,05,07,07,19,5.80
2019,05,07,07,20,5.90
2019,05,07,07,21,6.00
2019,05,07,07,22,6.10
2019,05,07,07,23,6.10
2019,05,07,07,24,6.20
2019,05,07,07,25,6.20
2019,05,07,07,26,6.30
2019,05,07,07,27,6.30
2019,05,07,07,28,6.40
2019,05,07,07,29,6.50
2019,05,07,07,30,6.50
2019,05,07,07,31,6.60
2019,05,07,07,32,6.60
2019,05,07,07,33,6.70
2019,05,07,07,34,6.80
2019,05,07,07,35,6.90
2019,05,07,07,36,7.00
2019,05,07,07,37,7.10
2019,05,07,07,38,7.30
2019,05,07,07,39,7.40
2019,05,07,07,40,7.50
2019,05,07,07,41,7.60
2019,05,07,07,42,7.70
2019,05,07,07,43,7.80
2019,05,07,07,44,7.90
2019,05,07,07,45,7.90
2019,05,07,07,46,8.00
2019,05,07,07,47,8.00
2019,05,07,07,48,8.10
2019,05,07,07,49,8.10
2019,05,07,07,50,8.20
2019,05,07,07,51,8.20
2019,05,07,07,52,8.20
2019,05,07,07,53,8.20
2019,05,07,07,54,8.30
2019,05,07,07,55,8.30
2019,05,07,07,56,8.40
2019,05,07,07,57,8.50
2019,05,07,07,58,8.60
2019,05,07,07,59,8.60
2019,05,07,08,00,8.70
2019,05,07,08,01,8.80
2019,05,07,08,02,8.80
2019,05,07,08,03,8.90
2019,05,07,08,04,9.00
2019,05,07,08,05,9.10
2019,05,07,08,06,9.20
2019,05,07,08,07,9.30
2019,05,07,08,08,9.40
2019,05,07,08,09,9.50
2019,05,07,08,10,9.60
2019,05,07,08,11,9.70
2019,05,07,08,12,9.70
2019,05,07,08,13,9.70
2019,05,07,08,14,9.70
2019,05,07,08,15,9.70
2019,05,07,08,16,9.70
2019,05,07,08,17,9.70
2019,05,07,08,18,9.70
2019,05,07,08,19,9.80
2019,05,07,08,20,9.80
2019,05,07,08,21,9.80
2019,05,07,08,22,9.90
2019,05,07,08,23,9.90
2019,05,07,08,24,10.00
2019,05,07,08,25,10.00
2019,05,07,08,26,10.10
2019,05,07,08,27,10.30
2019,05,07,08,28,10.30
2019,05,07,08,29,10.40
2019,05,07,08,30,10.40
2019,05,07,08,31,10.50
2019,05,07,08,32,10.60
2019,05,07,08,33,10.70
2019,05,07,08,34,10.80
2019,05,07,08,35,10.90
2019,05,07,08,36,11.00
2019,05,07,08,37,11.10
2019,05,07,08,38,11.10
2019,05,07,08,39,11.20
2019,05,07,08,40,11.30
2019,05,07,08,41,11.30
2019,05,07,08,42,11.40
2019,05,07,08,43,11.40
2019,05,07,08,44,11.50
2019,05,07,08,45,11.60
2019,05,07,08,46,11.60
2019,05,07,08,47,11.70
2019,05,07,08,48,11.70
2019,05,07,08,49,11.80
2019,05,07,08,50,11.90
2019,05,07,08,51,12.00
2019,05,07,08,52,12.10
2019,05,07,08,53,12.20
2019,05,07,08,54,12.30
2019,05,07,08,55,12.40
2019,05,07,08,56,12.50
2019,05,07,08,57,12.60
2019,05,07,08,58,12.70
2019,05,07,08,59,12.70
2019,05,07,09,00,12.80
2019,05,07,09,01,12.80
2019,05,07,09,02,12.80
2019,05,07,09,03,12.80
2019,05,07,09,04,12.90
2019,05,07,09,05,13.00
2019,05,07,09,06,13.00
2019,05,07,09,07,13.00
2019,05,07,09,08,13.10
2019,05,07,09,09,13.10
2019,05,07,09,10,13.10
2019,05,07,09,11,13.10
2019,05,07,09,12,13.20
2019,05,07,09,13,13.30
2019,05,07,09,14,13.40
2019,05,07,09,15,13.30
2019,05,07,09,16,13.30
2019,05,07,09,17,13.40
2019,05,07,09,18,13.40
2019,05,07,09,19,13.40
2019,05,07,09,20,13.50
2019,05,07,09,21,13.50
2019,05,07,09,22,13.70
2019,05,07,09,23,13.70
2019,05,07,09,24,13.80
2019,05,07,09,25,13.80
2019,05,07,09,26,13.80
2019,05,07,09,27,13.80
2019,05,07,09,28,13.80
2019,05,07,09,29,13.80
2019,05,07,09,30,13.90
2019,05,07,09,31,14.00
2019,05,07,09,32,14.10
2019,05,07,09,33,14.10
2019,05,07,09,34,14.10
2019,05,07,09,35,14.20
2019,05,07,09,36,14.20
2019,05,07,09,37,14.20
2019,05,07,09,38,14.30
2019,05,07,09,39,14.40
2019,05,07,09,40,14.40
2019,05,07,09,41,14.50
2019,05,07,09,42,14.50
2019,05,07,09,43,14.60
2019,05,07,09,44,14.60
2019,05,07,09,45,14.60
2019,05,07,09,46,14.60
2019,05,07,09,47,14.70
2019,05,07,09,48,14.80
2019,05,07,09,49,14.90
2019,05,07,09,50,15.00
2019,05,07,09,51,15.10
2019,05,07,09,52,15.20
2019,05,07,09,53,15.20
2019,05,07,09,54,15.20
2019,05,07,09,55,15.20
2019,05,07,09,56,15.20
2019,05,07,09,57,15.20
2019,05,07,09,58,15.30
2019,05,07,09,59,15.30
2019,05,07,10,00,15.20
2019,05,07,10,01,15.30
2019,05,07,10,02,15.30
2019,05,07,10,03,15.40
2019,05,07,10,04,15.50
2019,05,07,10,05,15.60
2019,05,07,10,06,15.70
2019,05,07,10,07,15.80
2019,05,07,10,08,15.80
2019,05,07,10,09,15.80
2019,05,07,10,10,15.80
2019,05,07,10,11,15.90
2019,05,07,10,12,15.90
2019,05,07,10,13,16.00
2019,05,07,10,14,16.20
2019,05,07,10,15,16.30
2019,05,07,10,16,16.40
2019,05,07,10,17,16.50
2019,05,07,10,18,16.70
2019,05,07,10,19,16.80
2019,05,07,10,20,16.80
2019,05,07,10,21,16.90
2019,05,07,10,22,17.00
2019,05,07,10,23,17.00
2019,05,07,10,24,17.10
2019,05,07,10,25,17.20
2019,05,07,10,26,17.30
2019,05,07,10,27,17.30
2019,05,07,10,28,17.40
2019,05,07,10,29,17.40
2019,05,07,10,30,17.50
2019,05,07,10,31,17.60
2019,05,07,10,32,17.60
2019,05,07,10,33,17.70
2019,05,07,10,34,17.70
2019,05,07,10,35,17.70
2019,05,07,10,36,17.80
2019,05,07,10,37,17.80
2019,05,07,10,38,17.80
2019,05,07,10,39,17.80
2019,05,07,10,40,17.80
2019,05,07,10,41,17.90
2019,05,07,10,42,18.00
2019,05,07,10,43,18.00
2019,05,07,10,44,18.10
2019,05,07,10,45,18.20
2019,05,07,10,46,18.20
2019,05,07,10,47,18.30
2019,05,07,10,48,18.30
2019,05,07,10,49,18.30
2019,05,07,10,50,18.30
2019,05,07,10,51,18.40
2019,05,07,10,52,18.40
2019,05,07,10,53,18.50
2019,05,07,10,54,18.50
2019,05,07,10,55,18.60
2019,05,07,10,56,18.60
2019,05,07,10,57,18.60
2019,05,07,10,58,18.70
2019,05,07,10,59,18.70
2019,05,07,11,00,18.70
2019,05,07,11,01,18.70
2019,05,07,11,02,18.80
2019,05,07,11,03,18.90
2019,05,07,11,04,18.90
2019,05,07,11,05,18.90
2019,05,07,11,06,19.00
2019,05,07,11,07,19.00
2019,05,07,11,08,19.10
2019,05,07,11,09,19.10
2019,05,07,11,10,19.10
2019,05,07,11,11,19.10
2019,05,07,11,12,19.10
2019,05,07,11,13,19.00
2019,05,07,11,14,19.00
2019,05,07,11,15,19.00
2019,05,07,11,16,19.00
2019,05,07,11,17,19.00
2019,05,07,11,18,19.10
2019,05,07,11,19,19.10
2019,05,07,11,20,19.10
2019,05,07,11,21,19.10
2019,05,07,11,22,19.10
2019,05,07,11,23,19.20
2019,05,07,11,24,19.20
2019,05,07,11,25,19.30
2019,05,07,11,26,19.30
2019,05,07,11,27,19.40
2019,05,07,11,28,19.40
2019,05,07,11,29,19.40
2019,05,07,11,30,19.40
2019,05,07,11,31,19.50
2019,05,07,11,32,19.50
2019,05,07,11,33,19.60
2019,05,07,11,34,19.60
2019,05,07,11,35,19.60
2019,05,07,11,36,19.60
2019,05,07,11,37,19.60
2019,05,07,11,38,19.70
2019,05,07,11,39,19.70
2019,05,07,11,40,19.80
2019,05,07,11,41,19.90
2019,05,07,11,42,19.90
2019,05,07,11,43,20.00
2019,05,07,11,44,20.00
2019,05,07,11,45,20.10
2019,05,07,11,46,20.10
2019,05,07,11,47,20.10
2019,05,07,11,48,20.20
2019,05,07,11,49,20.20
2019,05,07,11,50,20.20
2019,05,07,11,51,20.30
2019,05,07,11,52,20.30
2019,05,07,11,53,20.40
2019,05,07,11,54,20.50
2019,05,07,11,55,20.60
2019,05,07,11,56,20.60
2019,05,07,11,57,20.60
2019,05,07,11,58,20.70
2019,05,07,11,59,20.70
2019,05,07,12,00,20.70
2019,05,07,12,01,20.80
2019,05,07,12,02,20.80
2019,05,07,12,03,20.80
2019,05,07,12,04,20.80
2019,05,07,12,05,20.80
2019,05,07,12,06,20.80
2019,05,07,12,07,20.70
2019,05,07,12,08,20.80
2019,05,07,12,09,20.80
2019,05,07,12,10,20.80
2019,05,07,12,11,20.80
2019,05,07,12,12,20.80
2019,05,07,12,13,20.80
2019,05,07,12,14,20.80
2019,05,07,12,15,20.70
2019,05,07,12,16,20.70
2019,05,07,12,17,20.70
2019,05,07,12,18,20.80
2019,05,07,12,19,20.80
2019,05,07,12,20,20.90
2019,05,07,12,21,20.90
2019,05,07,12,22,20.90
2019,05,07,12,23,20.90
2019,05,07,12,24,20.90
2019,05,07,12,25,20.90
2019,05,07,12,26,20.90
2019,05,07,12,27,21.00
2019,05,07,12,28,21.10
2019,05,07,12,29,21.20
2019,05,07,12,30,21.30
2019,05,07,12,31,21.30
2019,05,07,12,32,21.30
2019,05,07,12,33,21.30
2019,05,07,12,34,21.40
2019,05,07,12,35,21.40
2019,05,07,12,36,21.40
2019,05,07,12,37,21.50
2019,05,07,12,38,21.40
2019,05,07,12,39,21.40
2019,05,07,12,40,21.40
2019,05,07,12,41,21.40
2019,05,07,12,42,21.50
2019,05,07,12,43,21.60
2019,05,07,12,44,21.70
2019,05,07,12,45,21.80
2019,05,07,12,46,21.80
2019,05,07,12,47,21.80
2019,05,07,12,48,21.70
2019,05,07,12,49,21.70
2019,05,07,12,50,21.70
2019,05,07,12,51,21.80
2019,05,07,12,52,21.90
2019,05,07,12,53,22.00
2019,05,07,12,54,22.00
2019,05,07,12,55,22.10
2019,05,07,12,56,22.10
2019,05,07,12,57,22.10
2019,05,07,12,58,22.20
2019,05,07,12,59,22.30
2019,05,07,13,00,22.30
2019,05,07,13,01,22.30
2019,05,07,13,02,22.30
2019,05,07,13,03,22.30
2019,05,07,13,04,22.20
2019,05,07,13,05,22.30
2019,05,07,13,06,22.30
2019,05,07,13,07,22.30
2019,05,07,13,08,22.30
2019,05,07,13,09,22.40
2019,05,07,13,10,22.40
2019,05,07,13,11,22.30
2019,05,07,13,12,22.30
2019,05,07,13,13,22.30
2019,05,07,13,14,22.30
2019,05,07,13,15,22.30
2019,05,07,13,16,22.20
2019,05,07,13,17,22.20
2019,05,07,13,18,22.20
2019,05,07,13,19,22.20
2019,05,07,13,20,22.20
2019,05,07,13,21,22.10
2019,05,07,13,22,22.10
2019,05,07,13,23,22.10
2019,05,07,13,24,22.10
2019,05,07,13,25,22.20
2019,05,07,13,26,22.20
2019,05,07,13,27,22.20
2019,05,07,13,28,22.30
2019,05,07,13,29,22.30
2019,05,07,13,30,22.30
2019,05,07,13,31,22.30
2019,05,07,13,32,22.40
2019,05,07,13,33,22.40
2019,05,07,13,34,22.40
2019,05,07,13,35,22.40
2019,05,07,13,36,22.30
2019,05,07,13,37,22.30
2019,05,07,13,38,22.30
2019,05,07,13,39,22.40
2019,05,07,13,40,22.50
2019,05,07,13,41,22.60
2019,05,07,13,42,22.60
2019,05,07,13,43,22.70
2019,05,07,13,44,22.70
2019,05,07,13,45,22.70
2019,05,07,13,46,22.70
2019,05,07,13,47,22.70
2019,05,07,13,48,22.70
2019,05,07,13,49,22.70
2019,05,07,13,50,22.70
2019,05,07,13,51,22.70
2019,05,07,13,52,22.70
2019,05,07,13,53,22.70
2019,05,07,13,54,22.80
2019,05,07,13,55,22.90
2019,05,07,13,56,22.90
2019,05,07,13,57,23.00
2019,05,07,13,58,23.10
2019,05,07,13,59,23.10
2019,05,07,14,00,23.20
2019,05,07,14,01,23.20
2019,05,07,14,02,23.30
2019,05,07,14,03,23.30
2019,05,07,14,04,23.40
2019,05,07,14,05,23.40
2019,05,07,14,06,23.40
2019,05,07,14,07,23.40
2019,05,07,14,08,23.30
2019,05,07,14,09,23.20
2019,05,07,14,10,23.20
2019,05,07,14,11,23.10
2019,05,07,14,12,23.10
2019,05,07,14,13,23.00
2019,05,07,14,14,23.00
2019,05,07,14,15,22.90
2019,05,07,14,16,22.90
2019,05,07,14,17,22.80
2019,05,07,14,18,22.80
2019,05,07,14,19,22.80
2019,05,07,14,20,22.80
2019,05,07,14,21,22.90
2019,05,07,14,22,23.00
2019,05,07,14,23,23.10
2019,05,07,14,24,23.10
2019,05,07,14,25,23.10
2019,05,07,14,26,23.10
2019,05,07,14,27,23.20
2019,05,07,14,28,23.20
2019,05,07,14,29,23.30
2019,05,07,14,30,23.40
2019,05,07,14,31,23.40
2019,05,07,14,32,23.40
2019,05,07,14,33,23.30
2019,05,07,14,34,23.30
2019,05,07,14,35,23.30
2019,05,07,14,36,23.30
2019,05,07,14,37,23.20
2019,05,07,14,38,23.20
2019,05,07,14,39,23.20
2019,05,07,14,40,23.20
2019,05,07,14,41,23.20
2019,05,07,14,42,23.30
2019,05,07,14,43,23.40
2019,05,07,14,44,23.40
2019,05,07,14,45,23.40
2019,05,07,14,46,23.40
2019,05,07,14,47,23.40
2019,05,07,14,48,23.40
2019,05,07,14,49,23.40
2019,05,07,14,50,23.50
2019,05,07,14,51,23.60
2019,05,07,14,52,23.60
2019,05,07,14,53,23.60
2019,05,07,14,54,23.50
2019,05,07,14,55,23.50
2019,05,07,14,56,23.40
2019,05,07,14,57,23.40
2019,05,07,14,58,23.40
2019,05,07,14,59,23.40
2019,05,07,15,00,23.60
2019,05,07,15,01,23.70
2019,05,07,15,02,23.90
2019,05,07,15,03,24.00
2019,05,07,15,04,24.20
2019,05,07,15,05,24.30
2019,05,07,15,06,24.40
2019,05,07,15,07,24.30
2019,05,07,15,08,24.30
2019,05,07,15,09,24.30
2019,05,07,15,10,24.30
2019,05,07,15,11,24.40
2019,05,07,15,12,24.40
2019,05,07,15,13,24.50
2019,05,07,15,14,24.60
2019,05,07,15,15,24.60
2019,05,07,15,16,24.60
2019,05,07,15,17,24.50
2019,05,07,15,18,24.20
2019,05,07,15,19,24.10
2019,05,07,15,20,24.00
2019,05,07,15,21,24.00
2019,05,07,15,22,23.90
2019,05,07,15,23,23.80
2019,05,07,15,24,23.70
2019,05,07,15,25,23.70
2019,05,07,15,26,23.80
2019,05,07,15,27,23.80
2019,05,07,15,28,23.90
2019,05,07,15,29,23.90
2019,05,07,15,30,23.90
2019,05,07,15,31,23.90
2019,05,07,15,32,24.00
2019,05,07,15,33,24.00
2019,05,07,15,34,24.10
2019,05,07,15,35,24.10
2019,05,07,15,36,24.10
2019,05,07,15,37,24.10
2019,05,07,15,38,24.10
2019,05,07,15,39,24.00
2019,05,07,15,40,23.90
2019,05,07,15,41,23.90
2019,05,07,15,42,23.80
2019,05,07,15,43,23.80
2019,05,07,15,44,23.80
2019,05,07,15,45,23.80
2019,05,07,15,46,23.80
2019,05,07,15,47,23.80
2019,05,07,15,48,23.80
2019,05,07,15,49,23.80
2019,05,07,15,50,23.80
2019,05,07,15,51,23.80
2019,05,07,15,52,23.80
2019,05,07,15,53,23.80
2019,05,07,15,54,23.90
2019,05,07,15,55,24.00
2019,05,07,15,56,24.10
2019,05,07,15,57,24.20
2019,05,07,15,58,24.30
2019,05,07,15,59,24.30
2019,05,07,16,00,24.30
2019,05,07,16,01,24.30
2019,05,07,16,02,24.30
2019,05,07,16,03,24.30
2019,05,07,16,04,24.30
2019,05,07,16,05,24.20
2019,05,07,16,06,24.20
2019,05,07,16,07,24.20
2019,05,07,16,08,24.20
2019,05,07,16,09,24.20
2019,05,07,16,10,24.10
2019,05,07,16,11,24.10
2019,05,07,16,12,24.10
2019,05,07,16,13,24.00
2019,05,07,16,14,24.00
2019,05,07,16,15,23.90
2019,05,07,16,16,23.90
2019,05,07,16,17,23.90
2019,05,07,16,18,23.90
2019,05,07,16,19,23.80
2019,05,07,16,20,23.90
2019,05,07,16,21,23.90
2019,05,07,16,22,24.00
2019,05,07,16,23,24.00
2019,05,07,16,24,24.10
2019,05,07,16,25,24.00
2019,05,07,16,26,24.00
2019,05,07,16,27,23.90
2019,05,07,16,28,23.90
2019,05,07,16,29,23.80
2019,05,07,16,30,23.80
2019,05,07,16,31,23.90
2019,05,07,16,32,23.90
2019,05,07,16,33,23.90
2019,05,07,16,34,23.90
2019,05,07,16,35,23.90
2019,05,07,16,36,24.00
2019,05,07,16,37,24.00
2019,05,07,16,38,24.10
2019,05,07,16,39,24.10
2019,05,07,16,40,24.10
2019,05,07,16,41,24.00
2019,05,07,16,42,24.00
2019,05,07,16,43,23.90
2019,05,07,16,44,23.90
2019,05,07,16,45,23.80
2019,05,07,16,46,23.80
2019,05,07,16,47,23.90
2019,05,07,16,48,23.90
2019,05,07,16,49,23.90
2019,05,07,16,50,23.90
2019,05,07,16,51,24.00
2019,05,07,16,52,24.00
2019,05,07,16,53,24.10
2019,05,07,16,54,24.20
2019,05,07,16,55,24.20
2019,05,07,16,56,24.10
2019,05,07,16,57,24.00
2019,05,07,16,58,23.80
2019,05,07,16,59,23.70
2019,05,07,17,00,23.70
2019,05,07,17,01,23.60
2019,05,07,17,02,23.60
2019,05,07,17,03,23.50
2019,05,07,17,04,23.50
2019,05,07,17,05,23.50
2019,05,07,17,06,23.60
2019,05,07,17,07,23.60
2019,05,07,17,08,23.60
2019,05,07,17,09,23.60
2019,05,07,17,10,23.50
2019,05,07,17,11,23.50
2019,05,07,17,12,23.60
2019,05,07,17,13,23.50
2019,05,07,17,14,23.40
2019,05,07,17,15,23.40
2019,05,07,17,16,23.40
2019,05,07,17,17,23.50
2019,05,07,17,18,23.50
2019,05,07,17,19,23.60
2019,05,07,17,20,23.50
2019,05,07,17,21,23.50
2019,05,07,17,22,23.60
2019,05,07,17,23,23.60
2019,05,07,17,24,23.60
2019,05,07,17,25,23.60
2019,05,07,17,26,23.60
2019,05,07,17,27,23.60
2019,05,07,17,28,23.50
2019,05,07,17,29,23.50
2019,05,07,17,30,23.50
2019,05,07,17,31,23.60
2019,05,07,17,32,23.60
2019,05,07,17,33,23.60
2019,05,07,17,34,23.60
2019,05,07,17,35,23.60